Location: Starlight Observatory
(38.4029°N, 85.8936°W)
Time: 17:42:25
(UTC-05:00)

Amateur Radio Satellites - All Passes

Search period start: 01 February 2015 17:12
Search period end: 02 February 2015 17:12
Location: Starlight Observatory, 38.4029°N, 85.8936°W

Satellite Date Start Highest point End Downlink Frequencies (MHz)
Time Altitude Azimuth
CUTE-I 01 Feb 17:15:24 17:19:34 25° 67° (ENE) 17:23:52 437.470
JUGNU 01 Feb 17:20:13 17:22:07 12° 176° (S) 17:24:03 437.505
MOZHAYETS 4 01 Feb 17:50:16 17:54:51 71° 284° (WNW) 17:59:24
AO-7 01 Feb 18:06:50 18:11:17 14° 273° (W) 18:15:03 29.400- 29.500
SO-50 01 Feb 18:07:55 18:12:05 27° 48° (NE) 18:16:19 436.795
SRMSAT 01 Feb 18:08:30 18:09:27 10° 172° (S) 18:10:29 437.500
STRAND 1 01 Feb 18:17:16 18:17:59 10° 87° (E) 18:19:06 437.568
CUBESAT XI-V 01 Feb 18:17:27 18:20:12 16° 90° (E) 18:23:09 437.345
JAS-2 01 Feb 18:18:06 18:20:29 12° 271° (W) 18:22:30 435.910
PRISM 01 Feb 18:23:01 18:26:13 22° 95° (E) 18:29:32 437.425
Cubesat XI-IV 01 Feb 18:35:13 18:40:29 60° 259° (W) 18:45:47 437.490
CUTE-I 01 Feb 18:54:27 18:59:27 40° 262° (W) 19:04:27 437.470
JUGNU 01 Feb 19:08:38 19:10:17 11° 186° (S) 19:11:53 437.505
GOMX 1 01 Feb 19:18:09 19:19:02 11° 61° (ENE) 19:20:15 467.674
CUTE 1.7 + AOD 2 01 Feb 19:31:41 19:32:04 10° 65° (ENE) 19:32:44 437.475
YUBILEINY 01 Feb 19:31:43 19:40:08 59° 92° (E) 19:48:38 435.215
BRITE-PL 01 Feb 19:38:26 19:42:30 24° 67° (ENE) 19:46:55 437.365/2234.400
SO-50 01 Feb 19:48:11 19:52:47 38° 245° (WSW) 19:57:18 436.795
HO-68 01 Feb 19:48:22 19:54:40 36° 65° (ENE) 20:01:06 435.675
STRAND 1 01 Feb 19:52:45 19:57:55 81° 286° (WNW) 20:03:05 437.568
CUBESAT XI-V 01 Feb 19:53:26 19:57:59 48° 286° (WNW) 20:02:29 437.345
SEEDS 01 Feb 19:54:41 19:57:14 16° 68° (ENE) 19:59:57 437.485
SRMSAT 01 Feb 19:55:26 19:57:46 12° 182° (S) 20:00:05 437.500
PRISM 01 Feb 19:58:12 20:01:46 27° 290° (WNW) 20:05:17 437.425
CINEMA 3 01 Feb 20:07:30 20:09:32 13° 64° (ENE) 20:11:52 145.822/145.860
COMPASS 1 01 Feb 20:14:57 20:18:12 22° 70° (ENE) 20:21:32 437.405
AAUSAT CUBESAT 2 01 Feb 20:37:40 20:41:28 35° 72° (ENE) 20:45:19 437.432
CANX-2 01 Feb 20:39:39 20:43:55 69° 76° (ENE) 20:48:12 2200.000
ZACube-1 01 Feb 20:45:24 20:46:45 11° 65° (ENE) 20:48:22 437.345
DOVE 4 01 Feb 20:45:34 20:50:31 53° 73° (ENE) 20:55:42 437.250
DX 1 01 Feb 20:47:34 20:49:44 14° 65° (ENE) 20:52:07 434.975-435.025
GOMX 1 01 Feb 20:51:10 20:56:19 83° 77° (ENE) 21:01:47 467.674
CUBEBUG 2 01 Feb 20:52:25 20:55:51 21° 68° (ENE) 20:59:25 437.445
FUNcube-1 01 Feb 20:54:55 20:57:18 15° 66° (ENE) 20:59:53 145.935
CUTE 1.7 + AOD 2 01 Feb 21:03:15 21:07:31 69° 259° (W) 21:11:48 437.475
ISS 01 Feb 21:04:45 21:08:01 83° 322° (NW) 21:11:19 145.825
BRITE-PL 01 Feb 21:15:53 21:20:44 41° 264° (W) 21:25:55 437.365/2234.400
Oscar 11 01 Feb 21:18:21 21:22:33 50° 74° (ENE) 21:26:47 145.826/435.025
UWE-3 01 Feb 21:23:22 21:27:36 35° 72° (ENE) 21:31:54 435.000/436.395/437.385
SEEDS 01 Feb 21:28:47 21:32:48 40° 262° (W) 21:36:49 437.485
AISAT 01 Feb 21:30:00 21:32:33 16° 66° (ENE) 21:35:19 437.250
YUBILEINY 01 Feb 21:30:11 21:37:33 29° 292° (WNW) 21:44:42 435.215
HO-68 01 Feb 21:35:37 21:42:19 41° 262° (W) 21:48:59 435.675
CINEMA 3 01 Feb 21:41:12 21:46:10 75° 259° (WSW) 21:51:15 145.822/145.860
DELFI C3 01 Feb 21:45:51 21:49:56 85° 79° (E) 21:54:01 145.870
COMPASS 1 01 Feb 21:50:09 21:53:49 28° 265° (W) 21:57:26 437.405
HUMSAT D 01 Feb 21:51:24 21:55:10 30° 71° (ENE) 21:59:01 437.325/437.525
CUBEBUG 1 01 Feb 21:54:38 21:55:21 10° 64° (ENE) 21:56:19 437.445
VELOX 1 01 Feb 21:54:53 21:58:36 27° 70° (ENE) 22:02:25 145.980
UKube-1 01 Feb 21:55:43 22:00:02 77° 76° (ENE) 22:04:24 .
AIST 1 01 Feb 22:04:49 22:08:40 30° 76° (ENE) 22:12:34
AAUSAT CUBESAT 2 01 Feb 22:14:24 22:17:17 17° 268° (W) 22:20:02 437.432
ZACube-1 01 Feb 22:18:00 22:22:36 72° 259° (W) 22:27:14 437.345
DX 1 01 Feb 22:21:22 22:25:37 51° 260° (W) 22:29:53 434.975-435.025
DOVE 4 01 Feb 22:25:13 22:28:42 17° 271° (W) 22:32:02 437.250
50 SAT 01 Feb 22:26:39 22:30:42 56° 75° (ENE) 22:34:45 437.505
CUBEBUG 2 01 Feb 22:27:48 22:32:17 40° 263° (W) 22:36:48 437.445
FUNcube-1 01 Feb 22:28:43 22:33:14 55° 260° (W) 22:37:47 145.935
GOMX 1 01 Feb 22:33:45 22:35:18 11° 275° (W) 22:36:26 467.674
UNISAT 6 01 Feb 22:39:54 22:43:27 24° 94° (E) 22:47:01 437.425
ISS 01 Feb 22:42:54 22:44:56 15° 339° (NNW) 22:46:57 145.825
NANOSAT C BR1 01 Feb 22:46:02 22:48:40 16° 91° (E) 22:51:28 145.865
Oscar 11 01 Feb 22:56:58 22:59:06 13° 270° (W) 23:00:59 145.826/435.025
SPROUT 01 Feb 22:59:09 23:01:03 13° 66° (ENE) 23:03:10 437.525
UWE-3 01 Feb 23:00:34 23:04:15 22° 267° (W) 23:07:50 435.000/436.395/437.385
BUGSAT 1 01 Feb 23:01:22 23:04:20 19° 92° (E) 23:07:26 437.445
QB50P2 01 Feb 23:01:58 23:05:31 25° 95° (E) 23:09:06 145.880/145.840
AISAT 01 Feb 23:04:32 23:08:50 47° 261° (W) 23:13:11 437.250
QB50P1 01 Feb 23:09:43 23:13:30 30° 96° (E) 23:17:19 145.935-145.965
ANTELSAT 01 Feb 23:15:37 23:20:00 64° 100° (E) 23:24:16 437.575/2403.000
ESTCUBE 1 01 Feb 23:19:45 23:24:15 79° 259° (W) 23:28:46 437.505/2401.250
TIGRISAT 01 Feb 23:20:59 23:25:24 72° 101° (E) 23:29:41 435.000
TISAT 1 01 Feb 23:21:08 23:24:23 22° 69° (ENE) 23:27:43 437.305
CUBEBUG 1 01 Feb 23:26:53 23:31:12 70° 259° (WSW) 23:35:36 437.445
POLYITAN 1 01 Feb 23:26:54 23:31:06 49° 99° (E) 23:35:16 437.675
HUMSAT D 01 Feb 23:27:36 23:31:01 22° 267° (W) 23:34:21 437.325/437.525
VELOX 1 01 Feb 23:31:28 23:35:10 25° 265° (W) 23:38:49 145.980
AIST 1 01 Feb 23:42:56 23:46:10 20° 271° (W) 23:49:17
POPSAT HIP 1 01 Feb 23:44:40 23:49:00 80° 101° (E) 23:53:18 437.405
GONETS M04 01 Feb 23:44:41 23:47:46 13° 78° (ENE) 23:51:34
DUCHIFAT 1 01 Feb 23:44:56 23:49:16 79° 104° (ESE) 23:53:32 145.980
SWISSCUBE 02 Feb 00:01:17 00:02:31 11° 63° (ENE) 00:04:01 437.505
50 SAT 02 Feb 00:05:18 00:06:14 10° 271° (W) 00:06:53 437.505
BEESAT 02 Feb 00:14:57 00:17:25 15° 65° (ENE) 00:20:05 436.000
UNISAT 6 02 Feb 00:16:31 00:20:15 27° 290° (WNW) 00:23:51 437.425
NANOSAT C BR1 02 Feb 00:20:45 00:24:46 39° 288° (WNW) 00:28:44 145.865
ITUPSAT 1 02 Feb 00:20:58 00:23:49 17° 66° (ENE) 00:26:52 437.325
SPROUT 02 Feb 00:32:30 00:36:44 54° 260° (W) 00:41:00 437.525
BUGSAT 1 02 Feb 00:36:04 00:39:58 34° 288° (WNW) 00:43:49 437.445
QB50P2 02 Feb 00:37:49 00:41:24 25° 290° (WNW) 00:44:53 145.880/145.840
QB50P1 02 Feb 00:45:56 00:49:15 21° 291° (WNW) 00:52:27 145.935-145.965
ANTELSAT 02 Feb 00:54:47 00:56:18 11° 296° (WNW) 00:57:35 437.575/2403.000
O/OREOS (USA 219) 02 Feb 00:56:19 00:59:29 19° 57° (ENE) 01:02:46 437.305
TISAT 1 02 Feb 00:56:21 01:00:04 29° 264° (W) 01:03:47 437.305
TIGRISAT 02 Feb 01:01:01 01:01:36 10° 296° (WNW) 01:01:56 435.000
POLYITAN 1 02 Feb 01:04:20 01:06:41 14° 294° (WNW) 01:08:49 437.675
BEESAT 2 02 Feb 01:15:45 01:19:21 30° 114° (ESE) 01:23:03 435.950
BEESAT 3 02 Feb 01:25:21 01:29:14 45° 116° (ESE) 01:33:14 437.485
AIST 2 02 Feb 01:33:28 01:36:28 20° 111° (ESE) 01:39:38 435.215
GONETS M04 02 Feb 01:34:39 01:43:23 78° 95° (E) 01:52:07
SWISSCUBE 02 Feb 01:35:04 01:39:49 78° 258° (WSW) 01:44:37 437.505
BEESAT 02 Feb 01:50:09 01:54:51 58° 259° (W) 01:59:33 436.000
ITUPSAT 1 02 Feb 01:56:44 02:01:22 50° 260° (W) 02:06:00 437.325
ISS 02 Feb 01:58:25 02:00:13 14° 19° (NNE) 02:02:04 145.825
Oscar 19 02 Feb 02:13:23 02:18:32 74° 103° (ESE) 02:23:39 437.125/150
Gurwin Techsat 1B 02 Feb 02:20:58 02:24:44 20° 92° (E) 02:28:41 435.225
AUBIESAT-1 02 Feb 02:23:50 02:26:29 18° 66° (ENE) 02:29:05 437.475
STARS 02 Feb 02:26:25 02:30:35 42° 73° (ENE) 02:34:50 437.465
O/OREOS (USA 219) 02 Feb 02:34:47 02:39:09 43° 254° (WSW) 02:43:29 437.305
ITAMSAT 1 02 Feb 02:38:40 02:43:37 43° 98° (E) 02:48:36 435.822/435.867
KKS-1 02 Feb 02:41:42 02:46:11 84° 257° (WSW) 02:50:43 437.445
BEESAT 2 02 Feb 02:54:11 02:57:37 24° 311° (NW) 03:01:00 435.950
BEESAT 3 02 Feb 03:04:47 03:07:39 18° 314° (NW) 03:10:28 437.485
PCSat 02 Feb 03:04:57 03:09:15 25° 108° (ESE) 03:13:42 145.827
DANDE 02 Feb 03:06:02 03:12:07 24° 85° (E) 03:18:39 436.750
AIST 2 02 Feb 03:10:54 03:14:52 37° 307° (NW) 03:18:53 435.215
CUSAT 1 02 Feb 03:12:15 03:19:04 30° 88° (E) 03:26:06 437.405
M-CUBED/EXP-1 PRIME 02 Feb 03:27:38 03:31:34 59° 254° (WSW) 03:35:11 437.505
ISS 02 Feb 03:33:56 03:37:13 67° 36° (NE) 03:40:30 145.825
GONETS M04 02 Feb 03:34:54 03:41:21 21° 296° (WNW) 03:47:23
Oscar 19 02 Feb 03:54:49 03:57:20 13° 297° (WNW) 03:59:35 437.125/150
AUBIESAT-1 02 Feb 03:57:55 04:01:19 27° 257° (WSW) 04:04:28 437.475
Gurwin Techsat 1B 02 Feb 03:59:55 04:05:01 47° 288° (WNW) 04:10:04 435.225
RS-15 02 Feb 04:03:41 04:13:46 47° 111° (ESE) 04:24:02 29.354- 29.394
STARS 02 Feb 04:04:26 04:07:19 16° 268° (W) 04:10:03 437.465
AO-7 02 Feb 04:12:28 04:19:59 38° 97° (E) 04:27:35 29.400- 29.500
ITAMSAT 1 02 Feb 04:18:50 04:22:53 23° 294° (WNW) 04:26:49 435.822/435.867
HORYU 2 02 Feb 04:26:03 04:30:29 71° 286° (WNW) 04:34:53 437.375
DANDE 02 Feb 04:46:29 04:54:54 77° 281° (W) 05:03:31 436.750
PCSat 02 Feb 04:47:22 04:52:29 42° 304° (NW) 04:57:37 145.827
MOZHAYETS 4 02 Feb 04:50:34 04:55:09 90° 98° (E) 04:59:45
CUSAT 1 02 Feb 04:53:29 05:01:44 61° 283° (WNW) 05:09:53 437.405
ISS 02 Feb 05:12:13 05:13:21 11° 231° (SW) 05:14:20 145.825
PRISM 02 Feb 05:13:29 05:15:36 14° 67° (ENE) 05:17:54 437.425
CUBESAT XI-V 02 Feb 05:20:36 05:22:44 14° 65° (ENE) 05:25:07 437.345
JAS-2 02 Feb 05:22:53 05:28:47 70° 102° (ESE) 05:35:29 435.910
STRAND 1 02 Feb 05:30:54 05:33:33 15° 64° (ENE) 05:36:25 437.568
YUBILEINY 02 Feb 05:44:16 05:51:13 27° 67° (ENE) 05:58:29 435.215
AO-7 02 Feb 06:05:04 06:12:57 47° 295° (WNW) 06:20:41 29.400- 29.500
RS-15 02 Feb 06:15:35 06:26:08 50° 312° (NW) 06:36:43 29.354- 29.394
PHONESAT 2.4 02 Feb 06:33:11 06:34:43 13° 145° (SE) 06:36:23 2401.200-2431.200
DANDE 02 Feb 06:34:21 06:39:50 17° 300° (WNW) 06:44:48 436.750
CUSAT 1 02 Feb 06:43:01 06:46:31 12° 303° (WNW) 06:49:21 437.405
VERMONT LUNAR 02 Feb 06:45:03 06:47:59 26° 150° (SSE) 06:50:57 437.305
PRISM 02 Feb 06:46:54 06:50:49 43° 261° (W) 06:54:45 437.425
Cubesat XI-IV 02 Feb 06:53:58 06:59:18 62° 101° (E) 07:04:38 437.490
CUBESAT XI-V 02 Feb 06:55:14 06:59:46 58° 260° (W) 07:04:20 437.345
STRAND 1 02 Feb 07:07:12 07:12:15 66° 258° (WSW) 07:17:22 437.568
JAS-2 02 Feb 07:09:39 07:13:34 18° 294° (WNW) 07:17:30 435.910
CUTE-I 02 Feb 07:12:38 07:18:03 89° 299° (WNW) 07:23:27 437.470
YUBILEINY 02 Feb 07:40:08 07:48:48 64° 267° (W) 07:57:26 435.215
PHONESAT 2.4 02 Feb 08:09:19 08:12:49 55° 158° (SSE) 08:16:22 2401.200-2431.200
VERMONT LUNAR 02 Feb 08:22:23 08:25:52 85° 345° (NNW) 08:29:21 437.305
CANX-2 02 Feb 08:28:32 08:30:26 13° 90° (E) 08:32:33 2200.000
RS-15 02 Feb 08:34:52 08:42:13 19° 343° (NNW) 08:49:26 29.354- 29.394
Cubesat XI-IV 02 Feb 08:35:31 08:38:57 17° 296° (WNW) 08:42:11 437.490
DOVE 4 02 Feb 08:48:11 08:51:20 17° 89° (E) 08:54:34 437.250
CUTE 1.7 + AOD 2 02 Feb 08:50:55 08:54:10 22° 93° (E) 08:57:30 437.475
CUTE-I 02 Feb 08:55:35 08:57:27 11° 299° (WNW) 08:59:00 437.470
GOMX 1 02 Feb 08:55:41 09:00:16 30° 93° (E) 09:04:42 467.674
HO-68 02 Feb 09:04:26 09:11:08 42° 98° (E) 09:17:53 435.675
SEEDS 02 Feb 09:14:54 09:18:45 35° 97° (E) 09:22:36 437.485
BRITE-PL 02 Feb 09:22:12 09:27:51 80° 101° (E) 09:33:09 437.365/2234.400
DELFI C3 02 Feb 09:29:24 09:31:14 13° 90° (E) 09:33:15 145.870
COMPASS 1 02 Feb 09:34:52 09:38:56 50° 99° (E) 09:42:59 437.405
BEESAT 2 02 Feb 09:37:35 09:40:02 15° 44° (NE) 09:42:35 435.950
UNISAT 6 02 Feb 09:37:45 09:41:12 21° 68° (ENE) 09:44:45 437.425
CINEMA 3 02 Feb 09:38:50 09:42:57 30° 95° (E) 09:46:57 145.822/145.860
NANOSAT C BR1 02 Feb 09:39:18 09:40:26 11° 65° (ENE) 09:41:49 145.865
UKube-1 02 Feb 09:46:33 09:48:52 14° 91° (E) 09:51:23 .
BEESAT 3 02 Feb 09:46:40 09:49:46 20° 47° (NE) 09:52:55 437.485
PHONESAT 2.4 02 Feb 09:47:50 09:51:24 63° 354° (N) 09:55:00 2401.200-2431.200
BUGSAT 1 02 Feb 09:52:12 09:53:24 11° 65° (ENE) 09:54:50 437.445
QB50P2 02 Feb 09:54:31 09:57:15 17° 68° (ENE) 10:00:09 145.880/145.840
AIST 2 02 Feb 09:57:31 09:58:51 11° 40° (NE) 10:00:20 435.215
AAUSAT CUBESAT 2 02 Feb 09:57:40 10:01:50 83° 102° (ESE) 10:05:59 437.432
VERMONT LUNAR 02 Feb 10:00:40 10:04:07 59° 3° (N) 10:07:34 437.305
SO-50 02 Feb 10:00:52 10:05:25 80° 300° (WNW) 10:10:09 436.795
QB50P1 02 Feb 10:01:51 10:04:57 20° 69° (ENE) 10:08:10 145.935-145.965
CANX-2 02 Feb 10:02:39 10:06:43 46° 286° (WNW) 10:10:44 2200.000
ZACube-1 02 Feb 10:09:21 10:12:51 24° 94° (E) 10:16:21 437.345
DX 1 02 Feb 10:11:34 10:15:23 29° 96° (E) 10:19:16 434.975-435.025
ANTELSAT 02 Feb 10:12:53 10:17:25 49° 73° (ENE) 10:21:56 437.575/2403.000
TIGRISAT 02 Feb 10:17:53 10:22:28 54° 74° (ENE) 10:27:02 435.000
POLYITAN 1 02 Feb 10:18:54 10:22:42 31° 71° (ENE) 10:26:34 437.675
FUNcube-1 02 Feb 10:19:31 10:23:21 30° 95° (E) 10:27:09 145.935
CUBEBUG 2 02 Feb 10:20:50 10:25:12 48° 98° (E) 10:29:24 437.445
DOVE 4 02 Feb 10:24:34 10:29:31 49° 287° (WNW) 10:34:09 437.250
CUTE 1.7 + AOD 2 02 Feb 10:26:31 10:30:08 28° 289° (WNW) 10:33:41 437.475
GOMX 1 02 Feb 10:33:41 10:38:22 31° 291° (WNW) 10:42:46 467.674
AIST 1 02 Feb 10:33:46 10:36:44 19° 89° (E) 10:39:50
DUCHIFAT 1 02 Feb 10:36:03 10:40:09 48° 74° (ENE) 10:44:19 145.980
POPSAT HIP 1 02 Feb 10:36:06 10:40:13 48° 74° (ENE) 10:44:24 437.405
Oscar 11 02 Feb 10:43:13 10:47:29 63° 285° (WNW) 10:51:44 145.826/435.025
UWE-3 02 Feb 10:51:18 10:55:46 89° 270° (W) 11:00:04 435.000/436.395/437.385
SEEDS 02 Feb 10:51:29 10:54:22 18° 291° (WNW) 10:57:06 437.485
HO-68 02 Feb 10:52:21 10:58:46 36° 295° (WNW) 11:05:04 435.675
RS-15 02 Feb 10:53:03 11:00:31 20° 19° (NNE) 11:08:26 29.354- 29.394
AISAT 02 Feb 10:57:09 11:01:19 36° 97° (E) 11:05:28 437.250
BRITE-PL 02 Feb 11:02:43 11:05:39 14° 298° (WNW) 11:08:14 437.365/2234.400
DELFI C3 02 Feb 11:02:54 11:06:45 42° 286° (WNW) 11:10:34 145.870
NANOSAT C BR1 02 Feb 11:11:36 11:15:50 64° 259° (W) 11:20:07 145.865
COMPASS 1 02 Feb 11:12:19 11:14:16 13° 294° (WNW) 11:16:03 437.405
HUMSAT D 02 Feb 11:12:37 11:16:49 70° 101° (E) 11:20:57 437.325/437.525
UNISAT 6 02 Feb 11:13:24 11:17:48 37° 263° (W) 11:22:08 437.425
BEESAT 2 02 Feb 11:14:33 11:18:39 57° 243° (WSW) 11:22:40 435.950
ESTCUBE 1 02 Feb 11:14:41 11:18:21 24° 94° (E) 11:22:05 437.505/2401.250
CINEMA 3 02 Feb 11:16:10 11:20:04 25° 291° (WNW) 11:23:44 145.822/145.860
CUBEBUG 1 02 Feb 11:17:59 11:21:34 24° 94° (E) 11:25:14 437.445
UKube-1 02 Feb 11:21:09 11:25:20 45° 288° (WNW) 11:29:30 .
VELOX 1 02 Feb 11:22:46 11:27:16 69° 101° (ESE) 11:31:43 145.980
BEESAT 3 02 Feb 11:24:12 11:28:04 38° 245° (WSW) 11:31:50 437.485
BUGSAT 1 02 Feb 11:24:23 11:28:27 58° 260° (W) 11:32:35 437.445
PHONESAT 2.4 02 Feb 11:26:32 11:30:09 75° 12° (NNE) 11:33:46 2401.200-2431.200
QB50P2 02 Feb 11:28:53 11:32:55 39° 262° (W) 11:36:58 145.880/145.840
AIST 2 02 Feb 11:33:53 11:38:11 90° 245° (WSW) 11:42:23 435.215
QB50P1 02 Feb 11:36:47 11:40:40 32° 264° (W) 11:44:32 145.935-145.965
VERMONT LUNAR 02 Feb 11:38:48 11:42:17 69° 200° (SSW) 11:45:46 437.305
50 SAT 02 Feb 11:42:33 11:46:34 68° 284° (WNW) 11:50:31 437.505
SO-50 02 Feb 11:44:55 11:46:51 12° 322° (NW) 11:48:38 436.795
ZACube-1 02 Feb 11:45:31 11:49:15 27° 290° (WNW) 11:52:48 437.345
GONETS M04 02 Feb 11:47:13 11:54:56 35° 71° (ENE) 12:02:48
DX 1 02 Feb 11:48:00 11:51:32 23° 291° (WNW) 11:54:57 434.975-435.025
ANTELSAT 02 Feb 11:51:34 11:54:31 16° 269° (W) 11:57:15 437.575/2403.000
Oscar 19 02 Feb 11:53:57 11:55:07 11° 62° (ENE) 11:56:36 437.125/150
PCSat 02 Feb 11:54:12 11:57:44 18° 45° (NE) 12:01:25 145.827
POLYITAN 1 02 Feb 11:55:26 11:58:43 20° 267° (W) 12:01:55 437.675
FUNcube-1 02 Feb 11:56:13 11:59:34 21° 291° (WNW) 12:02:44 145.935
TIGRISAT 02 Feb 11:56:57 11:59:36 14° 270° (W) 12:01:59 435.000
CUBEBUG 2 02 Feb 11:58:54 12:01:31 15° 294° (WNW) 12:03:55 437.445
AIST 1 02 Feb 12:10:29 12:14:15 29° 284° (WNW) 12:17:58
DUCHIFAT 1 02 Feb 12:14:11 12:16:21 13° 270° (W) 12:18:19 145.980
POPSAT HIP 1 02 Feb 12:14:19 12:16:28 13° 270° (W) 12:18:25 437.405
SPROUT 02 Feb 12:21:10 12:24:55 28° 95° (E) 12:28:42 437.525
AISAT 02 Feb 12:34:22 12:37:44 20° 292° (WNW) 12:40:58 437.250
TISAT 1 02 Feb 12:42:12 12:46:21 48° 99° (E) 12:50:30 437.305
ESTCUBE 1 02 Feb 12:51:17 12:55:14 29° 290° (WNW) 12:59:08 437.505/2401.250
CUBEBUG 1 02 Feb 12:54:06 12:57:58 28° 290° (WNW) 13:01:44 437.445
VELOX 1 02 Feb 13:01:48 13:03:21 11° 296° (WNW) 13:04:38 145.980
PHONESAT 2.4 02 Feb 13:05:14 13:08:35 35° 207° (SSW) 13:11:55 2401.200-2431.200
RS-15 02 Feb 13:05:33 13:16:32 52° 49° (NE) 13:28:04 29.354- 29.394
VERMONT LUNAR 02 Feb 13:17:43 13:20:01 16° 213° (SSW) 13:22:17 437.305
Oscar 19 02 Feb 13:28:36 13:33:49 90° 24° (NNE) 13:39:02 437.125/150
PCSat 02 Feb 13:36:22 13:41:48 72° 245° (WSW) 13:47:11 145.827
SWISSCUBE 02 Feb 13:37:24 13:41:35 30° 96° (E) 13:45:50 437.505
Gurwin Techsat 1B 02 Feb 13:40:30 13:44:55 28° 68° (ENE) 13:49:26 435.225
GONETS M04 02 Feb 13:43:49 13:52:01 47° 270° (W) 14:00:08
BEESAT 02 Feb 13:52:04 13:56:33 39° 98° (E) 14:01:03 436.000
ITAMSAT 1 02 Feb 13:55:09 14:00:11 56° 73° (ENE) 14:05:17 435.822/435.867
SPROUT 02 Feb 13:57:26 14:00:55 23° 291° (WNW) 14:04:18 437.525
CUSAT 1 02 Feb 13:58:39 14:00:21 12° 56° (NE) 14:02:11 437.405
ITUPSAT 1 02 Feb 13:58:50 14:03:27 46° 99° (E) 14:08:04 437.325
TISAT 1 02 Feb 14:19:25 14:21:49 14° 294° (WNW) 14:24:03 437.305
KKS-1 02 Feb 14:35:19 14:38:41 21° 93° (E) 14:42:09 437.445
O/OREOS (USA 219) 02 Feb 15:06:55 15:10:32 25° 103° (ESE) 15:14:17 437.305
AO-7 02 Feb 15:09:39 15:17:25 46° 65° (ENE) 15:25:18 29.400- 29.500
SWISSCUBE 02 Feb 15:15:22 15:19:23 26° 291° (WNW) 15:23:18 437.505
RS-15 02 Feb 15:18:12 15:28:59 47° 249° (WSW) 15:40:00 29.354- 29.394
Gurwin Techsat 1B 02 Feb 15:19:59 15:24:49 34° 264° (W) 15:29:36 435.225
HORYU 2 02 Feb 15:22:45 15:27:15 88° 77° (ENE) 15:31:46 437.375
BEESAT 02 Feb 15:30:36 15:34:11 21° 293° (WNW) 15:37:37 436.000
DANDE 02 Feb 15:35:02 15:41:02 89° 72° (ENE) 15:45:22 436.750
JAS-2 02 Feb 15:36:05 15:39:56 21° 67° (ENE) 15:43:50 435.910
ITAMSAT 1 02 Feb 15:36:53 15:40:08 16° 270° (W) 15:43:10 435.822/435.867
ITUPSAT 1 02 Feb 15:37:44 15:41:02 18° 294° (WNW) 15:44:12 437.325
CUSAT 1 02 Feb 15:39:10 15:44:36 65° 265° (W) 15:48:34 437.405
AUBIESAT-1 02 Feb 15:40:55 15:43:03 16° 100° (E) 15:45:21 437.475
STARS 02 Feb 15:54:00 15:58:27 77° 284° (WNW) 16:02:51 437.465
KKS-1 02 Feb 16:11:24 16:15:26 32° 289° (WNW) 16:19:24 437.445
Cubesat XI-IV 02 Feb 16:39:14 16:40:29 11° 61° (ENE) 16:42:04 437.490
M-CUBED/EXP-1 PRIME 02 Feb 16:45:36 16:48:55 54° 289° (WNW) 16:52:23 437.505
O/OREOS (USA 219) 02 Feb 16:45:57 16:49:52 28° 299° (WNW) 16:53:47 437.305
MOZHAYETS 4 02 Feb 16:47:57 16:51:35 24° 94° (E) 16:55:18
CUTE-I 02 Feb 16:55:47 16:58:51 16° 64° (ENE) 17:02:09 437.470
SO-50 02 Feb 16:56:13 16:56:58 10° 36° (NE) 16:57:57 436.795
JUGNU 02 Feb 17:05:08 17:07:08 12° 177° (S) 17:09:10 437.505
